Location: Leiter
(44.7178°N, 106.2687°W)
Time: 22:39:02
(UTC+00:00)

CUBESAT XI-V - Pass Details

Date: 01 July 2022
Orbit: 668 x 690 km, 98.1° (Epoch: 15 August)

Event Time Altitude Azimuth Distance (km) Brightness Sun altitude
Exits shadow 09:31:23 24° 221° (SW) 1,388 ? -14.8°
Maximum altitude 09:33:15 33° 264° (W) 1,134 ? -14.6°
Drops below altitude 10° 09:37:24 10° 328° (NNW) 2,109 ? -14.2°
Sets 09:39:50 0° 338° (NNW) 3,026 ? -13.9°
